Location: ??????
(55.2000°N, 38.3000°E)
Time: 19:10:22
(UTC+00:00)

SL-16 R/B - Pass Details

Date: 15 November 2025
Orbit: 840 x 847 km, 71.0° (Epoch: 14 December)

Event Time Altitude Azimuth Distance (km) Brightness Sun altitude
Rises 02:52:50 0° 204° (SSW) 3,399 5.2 -17.7°
Reaches altitude 10° 02:55:16 10° 202° (SSW) 2,468 4.5 -17.4°
Maximum altitude 03:00:54 73° 119° (ESE) 892 2.5 -16.6°
Drops below altitude 10° 03:06:36 10° 36° (NE) 2,483 5.0 -15.8°
Sets 03:09:03 0° 35° (NE) 3,422 5.7 -15.4°
